Miscellaneous Local Product
Issued by NWS North Platte, NE

Home | Current Version | Previous Version | Graphics & Text | Print | Product List | Glossary On
Versions: 1 2 3 4 5 6 7 8 9 10 11 12 13 14 15 16 17 18 19 20 21 22 23 24 25 26 27 28 29 30 31 32 33 34 35 36 37 38 39 40 41 42 43 44 45 46 47 48 49 50
496
AXUS43 KLBF 300910
MISLBF


WESTERN AND NORTH CENTRAL NEBRASKA HOURLY WEATHER ROUNDUP
NATIONAL WEATHER SERVICE NORTH PLATTE NE
400 AM CDT FRI SEP 30 2016

NOTE: "FAIR" INDICATES FEW OR NO CLOUDS BELOW 12,000 FEET WITH NO
SIGNIFICANT WEATHER AND/OR OBSTRUCTIONS TO VISIBILITY.

NOTE: STATIONS NOT REPORTING VARIABLES SUCH AS SKY/WEATHER OR
PRESSURE ARE PROVIDED BY RAWS AND APRS NETWORKS AND ARE NOT UNDER
NATIONAL WEATHER SERVICE QUALITY CONTROL.

...OBSERVATIONS IN AND NEAR THE EASTERN PANHANDLE OF NEBRASKA...

CITY           SKY/WX    TMP DP  RH WIND       PRES   REMARKS
PINE RIDGE     CLEAR     57  41  55 S22G35    30.17F
CHADRON        PTCLDY    58  40  51 S9        30.16F
ALLIANCE       CLOUDY    48  40  73 SE9       30.22F
SIDNEY         CLOUDY    47  39  74 SE10      30.24F
CRESCENT LAKE    N/A     49  41  73 S8          N/A
$$

...OBSERVATIONS IN NORTHERN NEBRASKA AND FAR SOUTHERN SOUTH DAKOTA...

CITY           SKY/WX    TMP DP  RH WIND       PRES   REMARKS
WINNER         FAIR      53  45  74 S15       30.26S
VALENTINE      CLEAR     52  42  69 S10       30.26F
THEDFORD       CLEAR     43  41  93 CALM      30.28F
AINSWORTH      CLEAR     46  44  90 S6        30.28F
O`NEILL        CLEAR     46  43  89 S3        30.31F
ORD            CLEAR     39  36  89 CALM      30.30F
BROKEN BOW     CLEAR     37  36  96 CALM      30.29F
VALENTINE NWR    N/A     45  41  86 S6          N/A
BUTTE            N/A     47  44  88 SE5         N/A
HALSEY           N/A     45  41  87 CALM        N/A
EWING            N/A     45  42  91 CALM        N/A
$$

...OBSERVATIONS IN SOUTHWEST NEBRASKA AND FAR NORTHEAST COLORADO...

CITY           SKY/WX    TMP DP  RH WIND       PRES   REMARKS
WRAY           FAIR      46  37  71 E7        30.25
IMPERIAL       CLOUDY    45  41  86 SE8       30.26F
OGALLALA       CLEAR     50  44  78 SE3       30.27S
NORTH PLATTE   CLEAR     43  40  89 E6        30.29S
MCCOOK         CLEAR     45  42  89 E6        30.29S
LEXINGTON      CLEAR     43  40  90 E3        30.30F
STAPLETON        N/A     43  40  91 CALM        N/A
GOTHENBURG       N/A     46  41  82 CALM        N/A
CALLAWAY         N/A     43  41  93 SE3         N/A
$$

...OBSERVATIONS IN CENTRAL LINCOLN COUNTY AREA...

CITY           SKY/WX    TMP DP  RH WIND       PRES   REMARKS
N.P. AIRPORT   CLEAR     43  40  89 E6        30.29S
N.P. DOWNTOWN    N/A     49  44  83 CALM        N/A
N.P. SOUTHEAST   N/A     48  43  83 CALM        N/A
N.P. HILLCREST   N/A     48  43  84 SE6         N/A
$$

...SOME OBSERVATIONS FROM AROUND THE REGION...

CITY           SKY/WX    TMP DP  RH WIND       PRES   REMARKS
DENVER         CLOUDY    57  38  48 SW9       30.22S
LARAMIE        CLOUDY    50  44  80 CALM      30.33F
CHEYENNE       CLOUDY    52  43  71 CALM      30.26S
SCOTTSBLUFF    CLOUDY    51  41  68 SE10      30.21F
RAPID CITY     PTCLDY    58  43  57 SE14      30.14F
BISMARCK       PTCLDY    53  46  77 SE12      30.20F
PIERRE         CLEAR     52  45  77 SE14      30.22F
SIOUX FALLS    CLEAR     44  42  93 NE5       30.34F
OMAHA          CLEAR     47  43  86 N7        30.31S
GRAND ISLAND   CLEAR     45  41  86 CALM      30.31F
KANSAS CITY    CLEAR     50  46  86 NE7       30.24F
WICHITA        PTCLDY    50  48  93 NW3       30.27F
OKLAHOMA CITY  PTCLDY    54  49  83 N6        30.25F
DALLAS         CLEAR     61  53  75 NW9       30.19F
AMARILLO       CLEAR     51  43  74 S12       30.30F
DODGE CITY     CLEAR     49  45  86 S7        30.30F
HAYS           CLEAR     43  34  70 CALM      30.30S
GOODLAND       CLOUDY    47  39  74 S14       30.24F
$$




USA.gov is the U.S. government's official web portal to all federal, state and local government web resources and services.